Hourly Weather Kizel

Today, 30 July, Friday

Time Temperature Precipitation Wind Pressure Humidity
00:00 +13°C° 0.2 mm 2 mps 727 mmHg 97%
01:00 +13°C° 0.2 mm 2 mps 727 mmHg 98%
02:00 +13°C° 0.5 mm 1 mps 726 mmHg 98%
03:00 +13°C° 0.5 mm 1 mps 726 mmHg 99%
04:00 +13°C° 0.5 mm 1 mps 726 mmHg 99%
05:00 +13°C° 1.2 mm 1 mps 726 mmHg 99%
06:00 +14°C° 1.2 mm 1 mps 725 mmHg 99%
07:00 +14°C° 1.2 mm 1 mps 725 mmHg 99%
08:00 +14°C° 1.8 mm 1 mps 725 mmHg 99%
09:00 +14°C° 1.8 mm 1 mps 724 mmHg 99%
10:00 +15°C° 1.8 mm 1 mps 724 mmHg 99%
11:00 +15°C° 1.4 mm 1 mps 724 mmHg 99%
12:00 +15°C° 1.4 mm 1 mps 724 mmHg 99%
13:00 +14°C° 1.4 mm 0 mps 724 mmHg 99%
14:00 +16°C° 0 mm 1 mps 724 mmHg 94%
15:00 +18°C° 0 mm 1 mps 724 mmHg 90%
16:00 +19°C° 0 mm 1 mps 725 mmHg 85%
17:00 +18°C° 1.2 mm 1 mps 725 mmHg 89%
18:00 +18°C° 1.2 mm 1 mps 725 mmHg 93%
19:00 +16°C° 1.2 mm 1 mps 725 mmHg 98%
20:00 +16°C° 0.1 mm 1 mps 725 mmHg 98%
21:00 +15°C° 0.1 mm 1 mps 725 mmHg 98%
22:00 +13°C° 0.1 mm 0 mps 725 mmHg 99%
23:00 +13°C° 0 mm 0 mps 726 mmHg 99%

Tomorrow, 31 July, Saturday

Time Temperature Precipitation Wind Pressure Humidity
00:00 +13°C° 0 mm 0 mps 726 mmHg 99%
01:00 +13°C° 0 mm 0 mps 726 mmHg 99%
02:00 +13°C° 0 mm 0 mps 726 mmHg 99%
03:00 +13°C° 0 mm 0 mps 727 mmHg 99%
04:00 +13°C° 0 mm 0 mps 727 mmHg 98%
05:00 +14°C° 0 mm 0 mps 727 mmHg 98%
06:00 +14°C° 0 mm 0 mps 728 mmHg 97%
07:00 +14°C° 0 mm 0 mps 728 mmHg 96%
08:00 +16°C° 0 mm 1 mps 728 mmHg 90%
09:00 +18°C° 0 mm 1 mps 728 mmHg 84%
10:00 +18°C° 0 mm 2 mps 728 mmHg 78%
11:00 +20°C° 0 mm 2 mps 728 mmHg 72%
12:00 +21°C° 0 mm 2 mps 728 mmHg 66%
13:00 +22°C° 0 mm 3 mps 728 mmHg 60%
14:00 +22°C° 0.2 mm 3 mps 728 mmHg 67%
15:00 +22°C° 0.2 mm 3 mps 728 mmHg 74%
16:00 +21°C° 0.2 mm 3 mps 728 mmHg 80%
17:00 +20°C° 0.3 mm 3 mps 727 mmHg 84%
18:00 +19°C° 0.3 mm 3 mps 727 mmHg 88%
19:00 +18°C° 0.3 mm 3 mps 727 mmHg 92%
20:00 +17°C° 0.5 mm 3 mps 726 mmHg 94%
21:00 +17°C° 0.5 mm 3 mps 726 mmHg 95%
22:00 +16°C° 0.5 mm 3 mps 726 mmHg 97%
23:00 +17°C° 2 mm 3 mps 726 mmHg 98%

Day after tomorrow, 1 August, Sunday

Time Temperature Precipitation Wind Pressure Humidity
00:00 +17°C° 2 mm 3 mps 725 mmHg 98%
01:00 +17°C° 2 mm 3 mps 725 mmHg 98%
02:00 +17°C° 0.2 mm 3 mps 725 mmHg 98%
03:00 +17°C° 0.2 mm 2 mps 725 mmHg 98%
04:00 +17°C° 0.2 mm 2 mps 726 mmHg 98%
05:00 +17°C° 0 mm 2 mps 726 mmHg 96%
06:00 +17°C° 0 mm 2 mps 726 mmHg 95%
07:00 +18°C° 0 mm 1 mps 727 mmHg 94%
08:00 +18°C° 0.5 mm 2 mps 727 mmHg 88%
09:00 +19°C° 0.5 mm 3 mps 727 mmHg 83%
10:00 +20°C° 0.5 mm 3 mps 727 mmHg 78%
11:00 +21°C° 0.4 mm 4 mps 727 mmHg 74%
12:00 +21°C° 0.4 mm 4 mps 727 mmHg 71%
13:00 +21°C° 0.4 mm 4 mps 727 mmHg 67%
14:00 +21°C° 0.7 mm 4 mps 728 mmHg 74%
15:00 +20°C° 0.7 mm 4 mps 728 mmHg 80%
16:00 +20°C° 0.7 mm 3 mps 728 mmHg 87%
17:00 +19°C° 0.5 mm 3 mps 728 mmHg 89%
18:00 +18°C° 0.5 mm 2 mps 728 mmHg 91%
19:00 +17°C° 0.5 mm 2 mps 729 mmHg 93%
20:00 +16°C° 0 mm 2 mps 729 mmHg 95%
21:00 +15°C° 0 mm 1 mps 729 mmHg 96%
22:00 +14°C° 0 mm 1 mps 729 mmHg 97%
23:00 +14°C° 0 mm 1 mps 730 mmHg 97%

2 August, Monday

Time Temperature Precipitation Wind Pressure Humidity
00:00 +13°C° 0 mm 1 mps 730 mmHg 97%
01:00 +13°C° 0 mm 1 mps 730 mmHg 97%
02:00 +13°C° 0 mm 1 mps 730 mmHg 98%
03:00 +13°C° 0 mm 1 mps 731 mmHg 98%
04:00 +12°C° 0 mm 1 mps 731 mmHg 98%
05:00 +14°C° 0 mm 1 mps 731 mmHg 97%
06:00 +15°C° 0 mm 1 mps 732 mmHg 95%
07:00 +16°C° 0 mm 1 mps 732 mmHg 94%
08:00 +17°C° 0.1 mm 2 mps 732 mmHg 86%
09:00 +19°C° 0.1 mm 2 mps 732 mmHg 78%
10:00 +20°C° 0.1 mm 2 mps 732 mmHg 70%
11:00 +21°C° 0.2 mm 3 mps 732 mmHg 64%
12:00 +22°C° 0.2 mm 3 mps 732 mmHg 58%
13:00 +24°C° 0.2 mm 3 mps 732 mmHg 52%
14:00 +24°C° 0 mm 3 mps 732 mmHg 54%
15:00 +24°C° 0 mm 3 mps 732 mmHg 56%
16:00 +24°C° 0 mm 2 mps 732 mmHg 57%
17:00 +23°C° 0 mm 2 mps 732 mmHg 64%
18:00 +21°C° 0 mm 2 mps 732 mmHg 70%
19:00 +20°C° 0 mm 2 mps 732 mmHg 77%
20:00 +18°C° 0 mm 2 mps 732 mmHg 83%
21:00 +17°C° 0 mm 2 mps 732 mmHg 89%
22:00 +16°C° 0 mm 2 mps 732 mmHg 94%
23:00 +15°C° 0 mm 2 mps 732 mmHg 96%

3 August, Tuesday

Time Temperature Precipitation Wind Pressure Humidity
00:00 +15°C° 0 mm 2 mps 732 mmHg 97%
01:00 +15°C° 0 mm 2 mps 731 mmHg 99%
02:00 +15°C° 0 mm 1 mps 731 mmHg 98%
03:00 +15°C° 0 mm 1 mps 731 mmHg 98%
04:00 +15°C° 0 mm 1 mps 731 mmHg 98%
05:00 +16°C° 0 mm 1 mps 731 mmHg 96%
06:00 +18°C° 0 mm 1 mps 732 mmHg 94%
07:00 +19°C° 0 mm 1 mps 732 mmHg 91%
08:00 +21°C° 0 mm 1 mps 732 mmHg 85%
09:00 +22°C° 0 mm 1 mps 732 mmHg 80%
10:00 +23°C° 0 mm 1 mps 732 mmHg 74%
11:00 +24°C° 0.1 mm 2 mps 732 mmHg 71%
12:00 +25°C° 0.1 mm 2 mps 732 mmHg 68%
13:00 +26°C° 0.1 mm 2 mps 732 mmHg 65%
14:00 +26°C° 0.2 mm 2 mps 732 mmHg 65%
15:00 +27°C° 0.2 mm 2 mps 732 mmHg 64%
16:00 +27°C° 0.2 mm 2 mps 732 mmHg 63%
17:00 +26°C° 0 mm 2 mps 731 mmHg 69%
18:00 +26°C° 0 mm 2 mps 731 mmHg 75%
19:00 +25°C° 0 mm 1 mps 731 mmHg 80%
20:00 +24°C° 0.1 mm 1 mps 731 mmHg 84%
21:00 +23°C° 0.1 mm 1 mps 731 mmHg 87%
22:00 +21°C° 0.1 mm 2 mps 730 mmHg 90%
23:00 +20°C° 0.1 mm 2 mps 730 mmHg 91%

4 August, Wednesday

Time Temperature Precipitation Wind Pressure Humidity
00:00 +20°C° 0.1 mm 2 mps 730 mmHg 93%
01:00 +20°C° 0.1 mm 1 mps 730 mmHg 94%
02:00 +20°C° 0 mm 1 mps 730 mmHg 94%
03:00 +20°C° 0 mm 1 mps 730 mmHg 94%
04:00 +20°C° 0 mm 1 mps 730 mmHg 93%
05:00 +19°C° 0 mm 2 mps 730 mmHg 90%
06:00 +20°C° 0 mm 2 mps 730 mmHg 88%
07:00 +21°C° 0 mm 2 mps 731 mmHg 85%
08:00 +23°C° 0 mm 2 mps 731 mmHg 77%
09:00 +24°C° 0 mm 3 mps 732 mmHg 69%
10:00 +25°C° 0 mm 3 mps 732 mmHg 61%
11:00 +26°C° 0 mm 3 mps 732 mmHg 58%
12:00 +26°C° 0 mm 3 mps 732 mmHg 54%
13:00 +27°C° 0 mm 3 mps 732 mmHg 51%
14:00 +27°C° 0 mm 3 mps 732 mmHg 51%
15:00 +27°C° 0 mm 3 mps 732 mmHg 51%
16:00 +27°C° 0 mm 3 mps 732 mmHg 52%
17:00 +25°C° 0 mm 3 mps 732 mmHg 60%
18:00 +24°C° 0 mm 2 mps 732 mmHg 69%
19:00 +22°C° 0 mm 1 mps 732 mmHg 77%
20:00 +21°C° 0 mm 1 mps 732 mmHg 79%
21:00 +20°C° 0 mm 1 mps 733 mmHg 81%
22:00 +17°C° 0 mm 0 mps 733 mmHg 83%
23:00 +16°C° 0 mm 0 mps 733 mmHg 86%
Show more